Auburn, CA

7:08 PM PST on November 11, 2019 (GMT -0800)
Auburn Municipal

Weather History for KAUN - September, 2019

Change the Weather History Date:

Friday, September 20, 2019

  Actual Average Record
Temperature  
Mean Temperature 64 °F -  
Max Temperature 77 °F 82 °F 98 °F (1949)
Min Temperature 50 °F 55 °F 42 °F (2004)
Degree Days  
Heating Degree Days 2    
Growing Degree Days 14 (Base 50)    
Moisture  
Dew Point 45 °F    
Average Humidity 49    
Maximum Humidity 76    
Minimum Humidity 31    
Precipitation  
Precipitation 0.00 in - - ()
Sea Level Pressure  
Sea Level Pressure 29.96 in    
Wind  
Wind Speed 2 mph ()    
Max Wind Speed 9 mph    
Max Gust Speed 15 mph    
Visibility 9.8 miles    
Events      
Averages and records for this station are not official NWS values.
T = Trace of Precipitation, MM = Missing Value Source: Averaged Metar Reports

Daily Weather History Graph

Daily Weather History Graph

Search for Another Location

Airport or City:

Astronomy

Sep. 20, 2019 Rise Set
Actual Time 6:50 AM PDT 7:04 PM PDT
Civil Twilight 6:23 AM PDT 7:31 PM PDT
Nautical Twilight 5:52 AM PDT 8:02 PM PDT
Astronomical Twilight 5:20 AM PDT 8:34 PM PDT
Moon 11:01 PM PDT (9/20) 12:57 PM PDT (9/20)
Length of Visible Light 13h 07m
Length of Day
12h 14m
Waning Gibbous, 64% of the Moon is Illuminated
Sep 20
Waning Gibbous
Sep 21
Last Quarter
Sep 28
New
Oct 5
First Quarter
Oct 13
Full

Hourly Weather History & Observations

Time (PDT) Temp. Dew Point Humidity Pressure Visibility Wind Dir Wind Speed Gust Speed Precip Events Conditions
12:15 AM 59.0 °F 48.2 °F 67% 29.94 in 10.0 mi Calm Calm - N/A   Clear
12:35 AM 59.0 °F 46.4 °F 63% 29.94 in 10.0 mi ENE 3.5 mph - N/A   Clear
12:55 AM 57.2 °F 46.4 °F 67% 29.94 in 10.0 mi Calm Calm - N/A   Clear
1:15 AM 57.2 °F 46.4 °F 67% 29.94 in 10.0 mi Calm Calm - N/A   Clear
1:35 AM 59.0 °F 44.6 °F 59% 29.94 in 10.0 mi Calm Calm - N/A   Clear
1:55 AM 59.0 °F 44.6 °F 59% 29.94 in 10.0 mi Calm Calm - N/A   Clear
2:15 AM 59.0 °F 44.6 °F 59% 29.94 in 10.0 mi Calm Calm - N/A   Clear
2:35 AM 59.0 °F 44.6 °F 59% 29.93 in 10.0 mi ENE 3.5 mph - N/A   Clear
2:55 AM 57.2 °F 44.6 °F 63% 29.93 in 10.0 mi East 4.6 mph - N/A   Clear
3:15 AM 55.4 °F 44.6 °F 67% 29.93 in 10.0 mi East 4.6 mph - N/A   Clear
3:35 AM 57.2 °F 44.6 °F 63% 29.93 in 10.0 mi East 5.8 mph - N/A   Clear
3:55 AM 57.2 °F 42.8 °F 59% 29.93 in 10.0 mi Calm Calm - N/A   Clear
4:15 AM 57.2 °F 42.8 °F 59% 29.93 in 10.0 mi Calm Calm - N/A   Clear
4:35 AM 57.2 °F 42.8 °F 59% 29.93 in 10.0 mi Calm Calm - N/A   Clear
4:55 AM 57.2 °F 41.0 °F 55% 29.93 in 10.0 mi Calm Calm - N/A   Clear
5:15 AM 55.4 °F 42.8 °F 63% 29.94 in 7.0 mi East 4.6 mph - N/A   Clear
5:35 AM 55.4 °F 42.8 °F 63% 29.94 in 10.0 mi Calm Calm - N/A   Clear
5:55 AM 53.6 °F 42.8 °F 67% 29.95 in 10.0 mi Calm Calm - N/A   Clear
6:15 AM 51.8 °F 42.8 °F 71% 29.95 in 10.0 mi Calm Calm - N/A   Clear
6:35 AM 50.0 °F 42.8 °F 76% 29.96 in 10.0 mi Calm Calm - N/A   Clear
6:55 AM 51.8 °F 44.6 °F 76% 29.96 in 10.0 mi Calm Calm - N/A   Clear
7:15 AM 53.6 °F 42.8 °F 67% 29.96 in 10.0 mi Calm Calm - N/A   Clear
7:35 AM 55.4 °F 42.8 °F 63% 29.97 in 10.0 mi Calm Calm - N/A   Clear
7:55 AM 59.0 °F 44.6 °F 59% 29.97 in 10.0 mi Calm Calm - N/A   Clear
8:15 AM 59.0 °F 44.6 °F 59% 29.98 in 10.0 mi East 3.5 mph - N/A   Clear
8:35 AM 62.6 °F 44.6 °F 52% 29.98 in 10.0 mi East 4.6 mph - N/A   Clear
8:55 AM 64.4 °F 44.6 °F 49% 29.98 in 10.0 mi Calm Calm - N/A   Clear
9:15 AM 66.2 °F 42.8 °F 43% 29.99 in 10.0 mi Calm Calm - N/A   Clear
9:35 AM 69.8 °F 44.6 °F 40% 29.99 in 10.0 mi Calm Calm - N/A   Clear
9:55 AM 69.8 °F 41.0 °F 35% 29.99 in 10.0 mi Calm Calm - N/A   Clear
10:15 AM 71.6 °F 39.2 °F 31% 29.99 in 10.0 mi Calm Calm - N/A   Clear
10:35 AM 73.4 °F 42.8 °F 33% 29.99 in 10.0 mi SW 3.5 mph - N/A   Clear
10:55 AM 73.4 °F 44.6 °F 36% 29.99 in 3.0 mi WSW 3.5 mph - N/A   Haze
11:15 AM 73.4 °F 44.6 °F 36% 29.99 in 9.0 mi Variable 6.9 mph - N/A   Clear
11:35 AM 73.4 °F 42.8 °F 33% 29.99 in 10.0 mi Variable 4.6 mph - N/A   Clear
11:55 AM 73.4 °F 44.6 °F 36% 29.99 in 10.0 mi Calm Calm - N/A   Clear
12:15 PM 73.4 °F 44.6 °F 36% 29.99 in 10.0 mi Calm Calm 11.5 mph N/A   Clear
12:35 PM 75.2 °F 44.6 °F 34% 29.99 in 10.0 mi Variable 4.6 mph 12.7 mph N/A   Clear
12:55 PM 75.2 °F 44.6 °F 34% 29.99 in 10.0 mi West 5.8 mph 11.5 mph N/A   Clear
1:15 PM 75.2 °F 44.6 °F 34% 29.98 in 10.0 mi West 6.9 mph - N/A   Clear
1:35 PM 75.2 °F 44.6 °F 34% 29.98 in 10.0 mi Variable 4.6 mph - N/A   Clear
1:55 PM 75.2 °F 44.6 °F 34% 29.97 in 10.0 mi Calm Calm - N/A   Clear
2:15 PM 77.0 °F 44.6 °F 32% 29.97 in 10.0 mi Calm Calm 12.7 mph N/A   Clear
2:35 PM 77.0 °F 44.6 °F 32% 29.96 in 10.0 mi West 8.1 mph - N/A   Clear
2:55 PM 77.0 °F 44.6 °F 32% 29.96 in 10.0 mi West 4.6 mph 11.5 mph N/A   Clear
3:15 PM 77.0 °F 44.6 °F 32% 29.96 in 10.0 mi WNW 9.2 mph - N/A   Clear
3:35 PM 77.0 °F 44.6 °F 32% 29.95 in 10.0 mi West 6.9 mph 13.8 mph N/A   Clear
3:55 PM 77.0 °F 44.6 °F 32% 29.95 in 10.0 mi WNW 8.1 mph - N/A   Clear
4:15 PM 77.0 °F 44.6 °F 32% 29.95 in 10.0 mi West 6.9 mph 15.0 mph N/A   Clear
4:35 PM 77.0 °F 46.4 °F 34% 29.95 in 10.0 mi West 9.2 mph - N/A   Clear
4:55 PM 77.0 °F 44.6 °F 32% 29.94 in 10.0 mi West 5.8 mph 11.5 mph N/A   Clear
5:35 PM 75.2 °F 44.6 °F 34% 29.94 in 10.0 mi Variable 4.6 mph 12.7 mph N/A   Clear
5:55 PM 75.2 °F 44.6 °F 34% 29.94 in 10.0 mi Variable 4.6 mph - N/A   Clear
6:15 PM 75.2 °F 42.8 °F 31% 29.94 in 10.0 mi Calm Calm - N/A   Clear
6:35 PM 73.4 °F 42.8 °F 33% 29.93 in 10.0 mi Calm Calm - N/A   Clear
6:55 PM 71.6 °F 42.8 °F 35% 29.94 in 10.0 mi Calm Calm - N/A   Clear
7:15 PM 69.8 °F 44.6 °F 40% 29.94 in 10.0 mi Calm Calm - N/A   Clear
7:35 PM 68.0 °F 44.6 °F 43% 29.94 in 10.0 mi Calm Calm - N/A   Clear
7:55 PM 64.4 °F 48.2 °F 56% 29.94 in 10.0 mi Calm Calm - N/A   Clear
8:15 PM 64.4 °F 46.4 °F 52% 29.95 in 10.0 mi Calm Calm - N/A   Clear
8:35 PM 62.6 °F 48.2 °F 59% 29.95 in 10.0 mi Calm Calm - N/A   Clear
8:55 PM 60.8 °F 48.2 °F 63% 29.95 in 10.0 mi Calm Calm - N/A   Clear
9:15 PM 60.8 °F 48.2 °F 63% 29.96 in 10.0 mi Calm Calm - N/A   Clear
9:35 PM 59.0 °F 46.4 °F 63% 29.95 in 10.0 mi Calm Calm - N/A   Clear
9:55 PM 66.2 °F 44.6 °F 46% 29.95 in 10.0 mi Calm Calm - N/A   Clear
10:15 PM 64.4 °F 46.4 °F 52% 29.95 in 10.0 mi Calm Calm - N/A   Clear
10:35 PM 64.4 °F 46.4 °F 52% 29.95 in 10.0 mi Calm Calm - N/A   Clear
10:55 PM 62.6 °F 46.4 °F 55% 29.94 in 10.0 mi Calm Calm - N/A   Clear
11:15 PM 64.4 °F 46.4 °F 52% 29.94 in 10.0 mi Calm Calm - N/A   Clear
11:35 PM 64.4 °F 46.4 °F 52% 29.94 in 10.0 mi Calm Calm - N/A   Clear
11:55 PM 64.4 °F 46.4 °F 52% 29.94 in 10.0 mi Calm Calm - N/A   Clear